Retour au catalogue

DFH-3 2

ActifCommunicationsGEO
NORAD 24798·PAYLOAD·🇨🇳 China

Lancé May 11, 1997 depuis Xichang Satellite Launch Center

Loading…

TLE

FraisSource: Space-Track

Époque: Sep 13, 2026, 19:26 UTC

1 24798U 97021A   26256.81010822 -.00000284  00000-0  00000-0 0  9997
2 24798  13.5780  13.1301 0007802 133.5769 233.9012  1.00180567107417

Suivez DFH-3 2 en temps réel avec AllMySat

Download on the App Store